Location: Belvedere Heights
(33.9836°N, 117.3109°W)
Time: 08:08:24
(UTC+00:00)

Envisat - Pass Details

Date: 21 March 2023
Orbit: 763 x 765 km, 98.2° (Epoch: 01 June)

Event Time Altitude Azimuth Distance (km) Brightness Sun altitude
Rises 12:05:23 0° 7° (N) 3,236 6.5 -22.6°
Reaches altitude 10° 12:07:44 10° 3° (N) 2,307 5.7 -22.1°
Maximum altitude 12:12:42 56° 286° (WNW) 903 3.0 -21.1°
Enters shadow 12:13:59 44° 237° (WSW) 1,055 3.2 -20.9°
